| time (UTC) | temp C | wind direction | speed KPH | gust KPH | rain 1hr cm | rain 24hr cm | rain mn cm | humidity % | barometer mb |
| 20260504100526 | 10 | 204 | 3.2 | 12.9 | 0.00 | 0.00 | 0.00 | 67 | 1015.3 |
| 20260504082004 | 10 | 166 | 1.6 | 3.2 | 0.00 | 0.00 | 0.00 | 67 | 1015.5 |
| 20260504081526 | 10 | 171 | 0.0 | 6.4 | 0.00 | 0.00 | 0.00 | 67 | 1015.5 |
| 20260504081027 | 10 | 184 | 1.6 | 6.4 | 0.00 | 0.00 | 0.00 | 67 | 1015.5 |
| 20260504080525 | 10 | 185 | 1.6 | 6.4 | 0.00 | 0.00 | 0.00 | 67 | 1015.5 |
| 20260504050504 | 6 | 0 | 0.0 | 0.0 | 0.00 | 0.00 | 0.00 | 75 | 1015.6 |
| 20260504045505 | 6 | 0 | 0.0 | 0.0 | 0.00 | 0.00 | 0.00 | 76 | 1015.6 |
| 20260504045026 | 6 | 0 | 0.0 | 0.0 | 0.00 | 0.00 | 0.00 | 77 | 1015.7 |
| 20260504044526 | 6 | 0 | 0.0 | 0.0 | 0.00 | 0.00 | 0.00 | 77 | 1015.8 |
| 20260504044004 | 6 | 0 | 0.0 | 0.0 | 0.00 | 0.00 | 0.00 | 78 | 1015.8 |
| 20260504043526 | 6 | 0 | 0.0 | 0.0 | 0.00 | 0.00 | 0.00 | 79 | 1015.8 |
| 20260504043025 | 6 | 0 | 0.0 | 0.0 | 0.00 | 0.00 | 0.00 | 79 | 1015.7 |
| 20260504042506 | 6 | 0 | 0.0 | 0.0 | 0.00 | 0.00 | 0.00 | 78 | 1015.7 |
| 20260504042004 | 6 | 0 | 0.0 | 0.0 | 0.00 | 0.00 | 0.00 | 78 | 1015.8 |
| 20260504041525 | 6 | 0 | 0.0 | 0.0 | 0.00 | 0.00 | 0.00 | 78 | 1015.7 |
| 20260504041026 | 6 | 0 | 0.0 | 0.0 | 0.00 | 0.00 | 0.00 | 78 | 1015.7 |
| 20260504040504 | 6 | 0 | 0.0 | 0.0 | 0.00 | 0.00 | 0.00 | 78 | 1015.7 |
| 20260504040026 | 6 | 0 | 0.0 | 0.0 | 0.00 | 0.00 | 0.00 | 78 | 1015.8 |
| 20260504035525 | 6 | 0 | 0.0 | 0.0 | 0.00 | 0.00 | 0.00 | 78 | 1015.7 |
| 20260504035026 | 6 | 0 | 0.0 | 0.0 | 0.00 | 0.00 | 0.00 | 79 | 1015.6 |
| 20260504034525 | 6 | 0 | 0.0 | 0.0 | 0.00 | 0.00 | 0.00 | 79 | 1015.5 |
| 20260504034006 | 6 | 0 | 0.0 | 0.0 | 0.00 | 0.00 | 0.00 | 79 | 1015.6 |
| 20260504033505 | 6 | 0 | 0.0 | 0.0 | 0.00 | 0.00 | 0.00 | 78 | 1015.5 |
| 20260504033004 | 6 | 0 | 0.0 | 0.0 | 0.00 | 0.00 | 0.00 | 78 | 1015.4 |
| 20260504032526 | 6 | 0 | 0.0 | 0.0 | 0.00 | 0.00 | 0.00 | 77 | 1015.4 |
| 20260504032025 | 6 | 0 | 0.0 | 0.0 | 0.00 | 0.00 | 0.00 | 77 | 1015.3 |
| 20260504031505 | 6 | 0 | 0.0 | 0.0 | 0.00 | 0.00 | 0.00 | 75 | 1015.2 |
| 20260504031004 | 6 | 0 | 0.0 | 0.0 | 0.00 | 0.00 | 0.00 | 75 | 1015.1 |
| 20260504030526 | 7 | 0 | 0.0 | 0.0 | 0.00 | 0.00 | 0.00 | 74 | 1015.2 |
| 20260504030026 | 7 | 0 | 0.0 | 0.0 | 0.00 | 0.00 | 0.00 | 73 | 1015.2 |
| 20260504025526 | 7 | 0 | 0.0 | 0.0 | 0.00 | 0.00 | 0.00 | 72 | 1015.2 |
| 20260504025005 | 7 | 0 | 0.0 | 0.0 | 0.00 | 0.00 | 0.00 | 72 | 1015.3 |
| 20260504024504 | 7 | 0 | 0.0 | 0.0 | 0.00 | 0.00 | 0.00 | 72 | 1015.2 |
| 20260504024025 | 7 | 0 | 0.0 | 0.0 | 0.00 | 0.00 | 0.00 | 70 | 1015.2 |
| 20260504023505 | 7 | 0 | 0.0 | 0.0 | 0.00 | 0.00 | 0.00 | 70 | 1015.2 |
| 20260504023026 | 7 | 0 | 0.0 | 0.0 | 0.00 | 0.00 | 0.00 | 69 | 1015.2 |
| 20260504022504 | 7 | 0 | 0.0 | 0.0 | 0.00 | 0.00 | 0.00 | 68 | 1015.2 |
| 20260504022005 | 8 | 0 | 0.0 | 0.0 | 0.00 | 0.00 | 0.00 | 68 | 1015.2 |
| 20260504021505 | 8 | 0 | 0.0 | 0.0 | 0.00 | 0.00 | 0.00 | 67 | 1015.2 |
| 20260504021025 | 8 | 0 | 0.0 | 0.0 | 0.00 | 0.00 | 0.00 | 65 | 1015.1 |
| 20260504020505 | 8 | 0 | 0.0 | 0.0 | 0.00 | 0.00 | 0.00 | 65 | 1015.1 |
| 20260504015505 | 8 | 0 | 0.0 | 0.0 | 0.00 | 0.00 | 0.00 | 64 | 1015.1 |
| 20260504015005 | 9 | 0 | 0.0 | 0.0 | 0.00 | 0.00 | 0.00 | 62 | 1015.0 |
| 20260504014506 | 9 | 0 | 0.0 | 0.0 | 0.00 | 0.00 | 0.00 | 61 | 1015.1 |
| 20260504014004 | 9 | 0 | 0.0 | 0.0 | 0.00 | 0.00 | 0.00 | 60 | 1015.1 |
| 20260504013504 | 10 | 0 | 0.0 | 0.0 | 0.00 | 0.00 | 0.00 | 59 | 1015.0 |
| 20260504013004 | 10 | 0 | 0.0 | 0.0 | 0.00 | 0.00 | 0.00 | 58 | 1014.9 |
| 20260504012504 | 10 | 0 | 0.0 | 0.0 | 0.00 | 0.00 | 0.00 | 57 | 1014.9 |
| 20260504012005 | 10 | 0 | 0.0 | 0.0 | 0.00 | 0.00 | 0.00 | 56 | 1014.9 |
| 20260504011506 | 10 | 0 | 0.0 | 0.0 | 0.00 | 0.00 | 0.00 | 55 | 1014.8 |
| 20260504011026 | 11 | 0 | 0.0 | 0.0 | 0.00 | 0.00 | 0.00 | 53 | 1014.8 |
| 20260504010525 | 11 | 0 | 0.0 | 0.0 | 0.00 | 0.00 | 0.00 | 53 | 1014.8 |
| 20260504010026 | 11 | 0 | 0.0 | 0.0 | 0.00 | 0.00 | 0.00 | 51 | 1014.8 |
| 20260504005526 | 12 | 0 | 0.0 | 0.0 | 0.00 | 0.00 | 0.00 | 48 | 1014.8 |
| 20260504005005 | 12 | 0 | 0.0 | 0.0 | 0.00 | 0.00 | 0.00 | 48 | 1014.7 |
| 20260504004525 | 12 | 0 | 0.0 | 0.0 | 0.00 | 0.00 | 0.00 | 47 | 1014.7 |
| 20260504004025 | 12 | 0 | 0.0 | 0.0 | 0.00 | 0.00 | 0.00 | 45 | 1014.6 |
| 20260504003505 | 13 | 0 | 0.0 | 0.0 | 0.00 | 0.00 | 0.00 | 44 | 1014.6 |
| 20260504003026 | 13 | 0 | 0.0 | 0.0 | 0.00 | 0.00 | 0.00 | 43 | 1014.5 |
| 20260504002505 | 13 | 236 | 0.0 | 1.6 | 0.00 | 0.00 | 0.00 | 44 | 1014.4 |
| 20260504002004 | 13 | 236 | 0.0 | 1.6 | 0.00 | 0.00 | 0.00 | 43 | 1014.4 |
| 20260504001527 | 14 | 236 | 0.0 | 1.6 | 0.00 | 0.00 | 0.00 | 40 | 1014.3 |
| 20260504001025 | 14 | 236 | 0.0 | 1.6 | 0.00 | 0.00 | 0.00 | 39 | 1014.3 |
| 20260504000504 | 15 | 230 | 0.0 | 4.8 | 0.00 | 0.00 | 0.00 | 38 | 1014.2 |
| 20260504000026 | 15 | 229 | 0.0 | 4.8 | 0.00 | 0.00 | 0.00 | 36 | 1014.1 |
| 20260503235525 | 15 | 206 | 0.0 | 1.6 | 0.00 | 0.00 | 0.00 | 36 | 1014.1 |
| 20260503235005 | 15 | 205 | 0.0 | 4.8 | 0.00 | 0.00 | 0.00 | 35 | 1014.2 |
| 20260503234525 | 15 | 208 | 1.6 | 4.8 | 0.00 | 0.00 | 0.00 | 35 | 1014.1 |
| 20260503234026 | 16 | 212 | 1.6 | 4.8 | 0.00 | 0.00 | 0.00 | 33 | 1014.0 |
| 20260503233525 | 16 | 211 | 1.6 | 8.0 | 0.00 | 0.00 | 0.00 | 33 | 1013.9 |
| 20260503233004 | 16 | 215 | 1.6 | 8.0 | 0.00 | 0.00 | 0.00 | 32 | 1013.9 |
| 20260503232526 | 16 | 228 | 1.6 | 8.0 | 0.00 | 0.00 | 0.00 | 32 | 1013.8 |
| 20260503232025 | 16 | 247 | 4.8 | 11.3 | 0.00 | 0.00 | 0.00 | 31 | 1013.8 |
| 20260503231505 | 16 | 244 | 4.8 | 12.9 | 0.00 | 0.00 | 0.00 | 31 | 1013.8 |
| 20260503231004 | 17 | 234 | 3.2 | 9.7 | 0.00 | 0.00 | 0.00 | 31 | 1013.9 |
| 20260503230505 | 17 | 271 | 3.2 | 6.4 | 0.00 | 0.00 | 0.00 | 31 | 1013.8 |
| 20260503230025 | 17 | 265 | 4.8 | 12.9 | 0.00 | 0.00 | 0.00 | 31 | 1013.8 |
| 20260503225505 | 17 | 240 | 4.8 | 12.9 | 0.00 | 0.00 | 0.00 | 31 | 1013.9 |
| 20260503225004 | 17 | 248 | 4.8 | 12.9 | 0.00 | 0.00 | 0.00 | 31 | 1013.9 |
| 20260503224525 | 17 | 257 | 4.8 | 14.5 | 0.00 | 0.00 | 0.00 | 30 | 1013.9 |
| 20260503224005 | 17 | 266 | 3.2 | 14.5 | 0.00 | 0.00 | 0.00 | 30 | 1013.9 |
| 20260503223525 | 17 | 309 | 3.2 | 8.0 | 0.00 | 0.00 | 0.00 | 30 | 1013.9 |
| 20260503223005 | 17 | 319 | 3.2 | 8.0 | 0.00 | 0.00 | 0.00 | 30 | 1013.9 |
| 20260503222525 | 17 | 303 | 4.8 | 20.9 | 0.00 | 0.00 | 0.00 | 30 | 1013.8 |
| 20260503222004 | 17 | 265 | 4.8 | 22.5 | 0.00 | 0.00 | 0.00 | 30 | 1013.9 |
| 20260503221525 | 17 | 239 | 6.4 | 24.1 | 0.00 | 0.00 | 0.00 | 31 | 1013.8 |
| 20260503221005 | 17 | 267 | 6.4 | 24.1 | 0.00 | 0.00 | 0.00 | 30 | 1013.9 |
| 20260503220504 | 17 | 283 | 6.4 | 19.3 | 0.00 | 0.00 | 0.00 | 29 | 1014.0 |
| 20260503220025 | 17 | 261 | 6.4 | 20.9 | 0.00 | 0.00 | 0.00 | 31 | 1014.0 |
| 20260503215526 | 17 | 259 | 8.0 | 20.9 | 0.00 | 0.00 | 0.00 | 29 | 1014.0 |
| 20260503215025 | 17 | 258 | 8.0 | 17.7 | 0.00 | 0.00 | 0.00 | 29 | 1014.0 |
| 20260503214526 | 17 | 235 | 6.4 | 24.1 | 0.00 | 0.00 | 0.00 | 30 | 1013.8 |
| 20260503214005 | 17 | 235 | 6.4 | 24.1 | 0.00 | 0.00 | 0.00 | 29 | 1013.9 |
| 20260503213504 | 17 | 249 | 4.8 | 20.9 | 0.00 | 0.00 | 0.00 | 30 | 1014.0 |
| 20260503213004 | 17 | 275 | 4.8 | 16.1 | 0.00 | 0.00 | 0.00 | 30 | 1013.8 |
| 20260503212525 | 17 | 265 | 8.0 | 24.1 | 0.00 | 0.00 | 0.00 | 30 | 1013.9 |
| 20260503212005 | 17 | 256 | 8.0 | 24.1 | 0.00 | 0.00 | 0.00 | 30 | 1013.9 |
| 20260503211525 | 17 | 225 | 8.0 | 24.1 | 0.00 | 0.00 | 0.00 | 31 | 1013.9 |
| 20260503211005 | 17 | 255 | 9.7 | 24.1 | 0.00 | 0.00 | 0.00 | 30 | 1013.9 |
| 20260503210525 | 17 | 291 | 9.7 | 22.5 | 0.00 | 0.00 | 0.00 | 30 | 1013.9 |
| 20260503210005 | 17 | 301 | 8.0 | 22.5 | 0.00 | 0.00 | 0.00 | 30 | 1013.8 |
| 20260503205505 | 17 | 299 | 4.8 | 17.7 | 0.00 | 0.00 | 0.00 | 31 | 1013.9 |
| 20260503205005 | 17 | 277 | 6.4 | 20.9 | 0.00 | 0.00 | 0.00 | 34 | 1013.9 |
| 20260503204526 | 16 | 294 | 8.0 | 20.9 | 0.00 | 0.00 | 0.00 | 32 | 1014.0 |
| 20260503204025 | 17 | 304 | 6.4 | 20.9 | 0.00 | 0.00 | 0.00 | 33 | 1014.0 |
| 20260503203505 | 16 | 295 | 8.0 | 25.7 | 0.00 | 0.00 | 0.00 | 32 | 1014.1 |
| 20260503203026 | 16 | 293 | 8.0 | 25.7 | 0.00 | 0.00 | 0.00 | 31 | 1014.2 |
| 20260503202504 | 16 | 260 | 8.0 | 29.0 | 0.00 | 0.00 | 0.00 | 34 | 1014.2 |
| 20260503202025 | 16 | 258 | 8.0 | 29.0 | 0.00 | 0.00 | 0.00 | 33 | 1014.2 |
| 20260503201525 | 16 | 268 | 8.0 | 20.9 | 0.00 | 0.00 | 0.00 | 32 | 1014.2 |
| 20260503201026 | 16 | 302 | 6.4 | 16.1 | 0.00 | 0.00 | 0.00 | 34 | 1014.3 |
| 20260503200504 | 16 | 262 | 9.7 | 27.4 | 0.00 | 0.00 | 0.00 | 33 | 1014.4 |
| 20260503200004 | 16 | 247 | 11.3 | 27.4 | 0.00 | 0.00 | 0.00 | 33 | 1014.5 |
| 20260503195504 | 17 | 257 | 9.7 | 25.7 | 0.00 | 0.00 | 0.00 | 32 | 1014.6 |
| 20260503195005 | 17 | 259 | 6.4 | 20.9 | 0.00 | 0.00 | 0.00 | 32 | 1014.6 |
| 20260503194525 | 17 | 303 | 6.4 | 22.5 | 0.00 | 0.00 | 0.00 | 35 | 1014.6 |
| 20260503194004 | 16 | 311 | 8.0 | 22.5 | 0.00 | 0.00 | 0.00 | 33 | 1014.7 |
| 20260503193525 | 16 | 284 | 6.4 | 19.3 | 0.00 | 0.00 | 0.00 | 34 | 1014.8 |
| 20260503193004 | 16 | 253 | 6.4 | 22.5 | 0.00 | 0.00 | 0.00 | 35 | 1014.8 |
| 20260503192525 | 16 | 273 | 9.7 | 24.1 | 0.00 | 0.00 | 0.00 | 34 | 1014.9 |
| 20260503192004 | 16 | 291 | 9.7 | 24.1 | 0.00 | 0.00 | 0.00 | 34 | 1015.0 |
| 20260503191526 | 16 | 305 | 8.0 | 25.7 | 0.00 | 0.00 | 0.00 | 33 | 1015.1 |
| 20260503191026 | 16 | 312 | 8.0 | 25.7 | 0.00 | 0.00 | 0.00 | 33 | 1015.1 |
| 20260503190525 | 15 | 284 | 9.7 | 29.0 | 0.00 | 0.00 | 0.00 | 35 | 1015.2 |
| 20260503190026 | 15 | 261 | 11.3 | 29.0 | 0.00 | 0.00 | 0.00 | 34 | 1015.3 |
| 20260503185504 | 16 | 257 | 8.0 | 29.0 | 0.00 | 0.00 | 0.00 | 33 | 1015.3 |
| 20260503185005 | 16 | 258 | 6.4 | 19.3 | 0.00 | 0.00 | 0.00 | 35 | 1015.2 |
| 20260503184505 | 15 | 266 | 8.0 | 24.1 | 0.00 | 0.00 | 0.00 | 35 | 1015.4 |
| 20260503184005 | 15 | 308 | 8.0 | 24.1 | 0.00 | 0.00 | 0.00 | 34 | 1015.5 |
| 20260503183505 | 16 | 299 | 6.4 | 19.3 | 0.00 | 0.00 | 0.00 | 33 | 1015.6 |
| 20260503183005 | 15 | 298 | 8.0 | 17.7 | 0.00 | 0.00 | 0.00 | 37 | 1015.6 |
| 20260503182525 | 15 | 306 | 9.7 | 20.9 | 0.00 | 0.00 | 0.00 | 35 | 1015.8 |
| 20260503182025 | 15 | 289 | 9.7 | 25.7 | 0.00 | 0.00 | 0.00 | 35 | 1015.8 |
| 20260503181527 | 15 | 272 | 11.3 | 25.7 | 0.00 | 0.00 | 0.00 | 34 | 1015.5 |
| 20260503181004 | 16 | 277 | 6.4 | 27.4 | 0.00 | 0.00 | 0.00 | 34 | 1015.5 |
| 20260503180504 | 16 | 274 | 6.4 | 33.8 | 0.00 | 0.00 | 0.00 | 34 | 1015.6 |
| 20260503180025 | 15 | 283 | 8.0 | 33.8 | 0.00 | 0.00 | 0.00 | 36 | 1015.8 |
| 20260503175505 | 15 | 312 | 8.0 | 29.0 | 0.00 | 0.00 | 0.00 | 35 | 1015.7 |
| 20260503175004 | 15 | 332 | 8.0 | 29.0 | 0.00 | 0.00 | 0.00 | 34 | 1015.9 |
| 20260503174504 | 15 | 323 | 8.0 | 25.7 | 0.00 | 0.00 | 0.00 | 35 | 1015.8 |
| 20260503174025 | 15 | 282 | 8.0 | 25.7 | 0.00 | 0.00 | 0.00 | 34 | 1015.8 |
| 20260503173504 | 15 | 286 | 8.0 | 20.9 | 0.00 | 0.00 | 0.00 | 35 | 1015.7 |
| 20260503173027 | 15 | 307 | 9.7 | 25.7 | 0.00 | 0.00 | 0.00 | 35 | 1015.7 |
| 20260503172525 | 15 | 303 | 8.0 | 25.7 | 0.00 | 0.00 | 0.00 | 34 | 1015.8 |
| 20260503172005 | 15 | 301 | 6.4 | 20.9 | 0.00 | 0.00 | 0.00 | 35 | 1015.9 |
| 20260503171504 | 14 | 317 | 6.4 | 30.6 | 0.00 | 0.00 | 0.00 | 36 | 1015.9 |
| 20260503171027 | 14 | 311 | 8.0 | 30.6 | 0.00 | 0.00 | 0.00 | 35 | 1015.9 |
| 20260503170504 | 14 | 287 | 8.0 | 27.4 | 0.00 | 0.00 | 0.00 | 35 | 1016.2 |
| 20260503150525 | 12 | 320 | 6.4 | 17.7 | 0.00 | 0.00 | 0.00 | 37 | 1016.6 |
| 20260503131025 | 9 | 311 | 8.0 | 22.5 | 0.00 | 0.00 | 0.00 | 52 | 1016.9 |
| 20260503130525 | 9 | 301 | 6.4 | 22.5 | 0.00 | 0.00 | 0.00 | 52 | 1016.8 |
| 20260503110504 | 5 | 275 | 4.8 | 16.1 | 0.00 | 0.00 | 0.00 | 70 | 1015.7 |